Weather Roundup
Issued by NWS Springfield, MO

Home | Current Version | Previous Version | Text Only | Print | Product List | Glossary On
Versions: 1 2 3 4 5 6 7 8 9 10 11 12 13 14 15 16 17 18 19 20 21 22 23 24 25 26 27 28 29 30 31 32 33 34 35 36 37 38 39 40 41 42 43 44 45 46 47 48 49 50
000
NZUS99 KSGF 040759
HRRSGF

HOURLY WEATHER
NATIONAL WEATHER SERVICE SPRINGFIELD MO
300 AM CDT MON MAY 04 2015

......SGF CWA......

CITY           SKY/WX    TMP DP  RH WIND       PRES   REMARKS
SPRINGFIELD    PTCLDY    64  55  72 S10       30.01S
JOPLIN         CLOUDY    67  55  65 S13       30.02R
WEST PLAINS    PTCLDY    61  53  75 S5        30.06S
ROLLA          CLOUDY    65  55  70 S10       30.00F
OSAGE BEACH    MOCLDY    64  54  68 S6        30.00S

......SURROUNDING SGF CWA......

CITY           SKY/WX    TMP DP  RH WIND       PRES   REMARKS
CHANUTE        CLOUDY    63  56  78 S13       29.97F
PARSONS        CLOUDY    62  57  83 S5        29.99F
COFFEYVILLE    CLOUDY    62  56  80 S7        29.98F
EMPORIA        CLOUDY    64  54  69 S15       29.91F
SILOAM SPRINGS MOCLDY    61  52  72 S3        30.05R
HARRISON AR    PTCLDY    62  55  77 CALM      30.05S
NEAR YELLVILLE PTCLDY    61  55  82 CALM      30.03S

......KANSAS AND MISSOURI......

CITY           SKY/WX    TMP DP  RH WIND       PRES   REMARKS
KANSAS CTY INT CLOUDY    69  56  62 S14       29.93S
DOWNTOWN KC    MOCLDY    70  56  61 S10       29.93F
COLUMBIA       CLOUDY    63  55  75 S7        29.98S
SEDALIA        MOCLDY    65  56  72 S8        29.99R
ST JOSEPH      CLOUDY    68  58  70 SW8       29.93R
ST LOUIS       CLOUDY    72  53  51 SW8       30.00S
SPIRIT OF STL  CLOUDY    70  54  56 S8        29.98F
KIRKSVILLE     CLOUDY    68  58  70 SW9       29.93S
WICHITA        CLOUDY    63  53  70 S10       29.94R
TOPEKA         PTCLDY    69  54  58 S10       29.90R
OLATHE         CLOUDY    67  56  67 S12       29.94S

......TENNESSEE......

CITY           SKY/WX    TMP DP  RH WIND       PRES   REMARKS
MEMPHIS        CLEAR     64  54  69 S7        30.08R
NASHVILLE      CLEAR     57  50  77 S5        30.14R

......ARKANSAS.......

CITY           SKY/WX    TMP DP  RH WIND       PRES   REMARKS
FAYETTEVILLE   PTCLDY    56  55  97 CALM      30.05R
FT SMITH       PTCLDY    62  55  77 CALM      30.02S
LITTLE ROCK    CLEAR     65  55  70 CALM      30.06R

......OKLAHOMA.......

CITY           SKY/WX    TMP DP  RH WIND       PRES   REMARKS
TULSA          CLOUDY    67  55  65 S6        30.00R
PONCA CITY     CLOUDY    63  55  75 S9        29.96F
MCALESTER      PTCLDY    66  55  67 S6        30.00F
OKLAHOMA CITY  MOCLDY    62  56  80 S8        29.96R

......IOWA............

CITY           SKY/WX    TMP DP  RH WIND       PRES   REMARKS
DES MOINES     CLOUDY    67  56  67 N10       29.88R
QUAD CITIES    LGT RAIN  61  57  87 NE9       29.96F

......ILLINOIS........

CITY           SKY/WX    TMP DP  RH WIND       PRES   REMARKS
QUINCY         CLOUDY    67  54  63 S10       29.94F
CHICAGO        CLOUDY    65  48  54 W17G24    29.93R



USA.gov is the U.S. government's official web portal to all federal, state and local government web resources and services.